STARLINK-2071 (47361 NORAD) Tracking and Keplerian Element Data

This shows tracking and keplerian element data for the satellite.

Feedback or suggestion? Click here.




ElementValue
Catalog47361
NameSTARLINK-2071
Epoch Orbit1402
Epoch Day101.91668981
Epoch Year2021
RAAN171.9447
Inclination53.0537
Eccentricity0.000412
Argument of Perigee15.0631
Mean Anonmoly142.1648
Mean Motion15.62802159
Decay Rate-0.00022085
L11 47361U 21005N 21101.91668981 -.00022085 00000-0 -23542-3 0 9990
L22 47361 53.0537 171.9447 0004120 15.0631 142.1648 15.62802159 14024

Live tracking and technical data element details for STARLINK-2071 (NORAD 47361). STARLINK-2071 can be tracked NOW for your location showing map with azimuth and elevation plus other details from your city location.

Track the satellite on the map from your city or location and see movement details for azimuth, elevation, latitude, longitude, range, height, and movement on the map or in text.







IsCatalogInMostPopularTable: catalog: 47361, numindb: 14
Update: records affected: 1



GetName: 47361 STARLINK-2071

Hit Count: updated at: Tue, 13 Apr 2021 04:52:19 GMT